Location: Pedimozza
(42.0500°N, 9.3500°E)
Time: 23:35:34
(UTC+00:00)

Cosmos 1500 - Pass Details

Date: 19 August 2019
Orbit: 499 x 522 km, 82.5° (Epoch: 19 September)

Event Time Altitude Azimuth Distance (km) Brightness Sun altitude
Exits shadow 20:22:24 66° 85° (E) 573 3.1 -20.9°
Drops below altitude 10° 20:26:09 10° 14° (NNE) 1,763 6.2 -21.4°
Sets 20:28:18 0° 11° (NNE) 2,654 7.2 -21.7°
